Location: Newark
(23.5328°S, 46.7919°W)
Time: 13:51:24
(UTC+00:00)

N. Korean satellite - Pass Details

Date: 10 March 2021
Orbit: 452 x 499 km, 97.2° (Epoch: 17 April)

Event Time Altitude Azimuth Distance (km) Brightness Sun altitude
Rises 07:16:58 0° 38° (NE) 2,580 10.5 -25.5°
Reaches altitude 10° 07:19:20 10° 52° (NE) 1,707 9.7 -25.0°
Maximum altitude 07:22:16 23° 105° (ESE) 1,118 9.1 -24.4°
Drops below altitude 10° 07:25:14 10° 158° (SSE) 1,721 9.8 -23.7°
Sets 07:27:37 0° 173° (S) 2,609 10.6 -23.2°
